EW1690 Weather Reports


Display with metric or nautical units.
time (UTC)temp
F
wind
direction
speed
MPH
gust
MPH
rain 1hr
in
rain 24hr
in
rain mn
in
humidity
%
barometer
mb
20230130083537 15 167 4.0 7.0 0.00 0.01 0.00 63 1014.1
20230130083045 15 148 3.0 10.0 0.00 0.01 0.00 62 1014.1
20230130082536 16 132 5.0 10.0 0.00 0.01 0.00 62 1014.2
20230130082034 16 139 4.0 9.0 0.00 0.01 0.00 61 1014.3
20230130081541 15 161 3.0 7.0 0.00 0.01 0.00 61 1014.4
20230130081038 16 148 3.0 7.0 0.00 0.01 0.00 61 1014.4
20230130080531 16 150 4.0 7.0 0.00 0.01 0.00 61 1014.5
20230130080036 16 152 2.0 8.0 0.00 0.01 0.00 61 1014.6
20230130075533 16 145 3.0 11.0 0.00 0.01 0.00 62 1014.7
20230130075030 16 145 4.0 9.0 0.00 0.01 0.00 63 1014.7
20230130074530 17 157 3.0 11.0 0.00 0.01 0.00 63 1014.9
20230130074029 16 168 5.0 11.0 0.00 0.01 0.00 62 1014.9
20230130073528 16 222 2.0 9.0 0.00 0.01 0.00 61 1014.9
20230130073036 16 155 4.0 12.0 0.00 0.01 0.00 60 1015.0
20230130072525 16 173 3.0 12.0 0.00 0.01 0.00 60 1015.2
20230130072023 16 169 3.0 10.0 0.00 0.01 0.00 58 1015.2
20230130071523 16 175 6.0 15.0 0.00 0.01 0.00 59 1015.4
20230130071025 16 160 6.0 15.0 0.00 0.01 0.00 58 1015.5
20230130070520 16 154 6.0 12.0 0.00 0.01 0.00 58 1015.5
20230130070020 16 182 4.0 10.0 0.00 0.01 0.00 57 1015.7
20230130065517 16 188 6.0 10.0 0.00 0.01 0.01 57 1015.8
20230130065015 17 149 6.0 10.0 0.00 0.01 0.01 57 1015.8
20230130064529 17 167 5.0 11.0 0.00 0.01 0.01 57 1015.9
20230130064012 17 156 6.0 11.0 0.00 0.01 0.01 56 1015.8
20230130063511 17 179 5.0 11.0 0.00 0.01 0.01 56 1016.0
20230130063010 17 152 5.0 11.0 0.00 0.01 0.01 56 1016.0
20230130062508 17 139 5.0 13.0 0.00 0.01 0.01 56 1016.0
20230130062008 17 150 6.0 13.0 0.00 0.01 0.01 56 1016.1
20230130061505 17 158 5.0 12.0 0.00 0.01 0.01 56 1016.1
20230130061003 17 163 6.0 12.0 0.00 0.01 0.01 56 1016.1
20230130060502 17 138 4.0 12.0 0.00 0.01 0.01 56 1016.1
20230130060101 17 148 7.0 12.0 0.00 0.01 0.01 56 1016.0
20230130055559 17 169 6.0 11.0 0.00 0.01 0.01 56 1016.2
20230130055057 17 176 6.0 13.0 0.00 0.01 0.01 57 1016.1
20230130054603 17 189 8.0 13.0 0.00 0.01 0.01 57 1016.1
20230130054056 17 181 6.0 13.0 0.00 0.01 0.01 58 1016.1
20230130053555 17 153 8.0 14.0 0.00 0.01 0.01 58 1016.1
20230130053055 17 148 6.0 12.0 0.00 0.01 0.01 58 1016.1
20230130052554 17 166 7.0 15.0 0.00 0.01 0.01 58 1016.2
20230130052054 17 155 8.0 15.0 0.00 0.01 0.01 58 1016.2
20230130051602 17 163 4.0 17.0 0.00 0.01 0.01 58 1016.3
20230130051052 17 135 8.0 17.0 0.00 0.01 0.01 58 1016.2
20230130050554 17 144 6.0 12.0 0.00 0.01 0.01 58 1016.2
20230130050113 17 167 6.0 15.0 0.00 0.01 0.01 58 1016.2
20230130045553 17 157 7.0 15.0 0.00 0.01 0.01 58 1016.2
20230130045052 17 150 6.0 14.0 0.00 0.01 0.01 57 1016.2
20230130044547 17 132 5.0 13.0 0.00 0.01 0.01 57 1016.0
20230130044045 17 179 7.0 15.0 0.00 0.01 0.01 57 1015.9
20230130043615 17 153 8.0 13.0 0.00 0.01 0.01 57 1016.0
20230130043043 17 150 7.0 17.0 0.00 0.01 0.01 57 1016.0
20230130042541 17 160 6.0 14.0 0.00 0.01 0.01 56 1016.0
20230130042040 17 169 9.0 14.0 0.00 0.01 0.01 57 1015.8
20230130041539 17 161 7.0 12.0 0.00 0.01 0.01 56 1015.7
20230130041037 17 149 7.0 14.0 0.00 0.01 0.01 56 1015.7
20230130040538 17 173 8.0 14.0 0.00 0.01 0.01 56 1015.7
20230130040033 17 139 6.0 14.0 0.00 0.01 0.01 56 1015.6
20230130035533 18 171 7.0 16.0 0.00 0.01 0.01 55 1015.7
20230130035030 18 167 7.0 18.0 0.00 0.01 0.01 54 1015.7
20230130034529 18 171 9.0 18.0 0.00 0.01 0.01 54 1015.6
20230130034027 18 161 7.0 12.0 0.00 0.01 0.01 52 1015.6
20230130033526 18 143 8.0 13.0 0.00 0.01 0.01 51 1015.4
20230130033025 18 146 5.0 12.0 0.00 0.01 0.01 50 1015.5
20230130032526 18 167 6.0 12.0 0.00 0.01 0.01 49 1015.4
20230130032021 19 165 5.0 15.0 0.00 0.01 0.01 47 1015.4
20230130031534 19 170 4.0 15.0 0.00 0.01 0.01 46 1015.3
20230130031018 19 171 5.0 14.0 0.00 0.01 0.01 46 1015.2
20230130030516 19 140 5.0 9.0 0.00 0.01 0.01 46 1015.2
20230130030018 19 164 4.0 9.0 0.00 0.01 0.01 46 1015.2
20230130025514 19 161 4.0 12.0 0.00 0.01 0.01 46 1015.2
20230130025014 19 133 2.0 12.0 0.00 0.01 0.01 46 1015.2
20230130024512 19 173 4.0 12.0 0.00 0.01 0.01 46 1015.3
20230130024008 19 169 3.0 8.0 0.00 0.01 0.01 46 1015.2
20230130023507 19 170 2.0 9.0 0.00 0.01 0.01 46 1015.2
20230130023006 19 170 1.0 9.0 0.00 0.01 0.01 46 1015.4
20230130022504 19 155 2.0 7.0 0.00 0.01 0.01 46 1015.4
20230130022003 19 167 3.0 7.0 0.00 0.01 0.01 45 1015.5
20230130021502 19 162 3.0 7.0 0.00 0.01 0.01 45 1015.4
20230130021100 19 159 3.0 8.0 0.00 0.01 0.01 45 1015.5
20230130020558 19 152 1.0 9.0 0.00 0.01 0.01 45 1015.6
20230130020057 20 168 2.0 6.0 0.00 0.01 0.01 44 1015.6
20230130015559 20 184 3.0 8.0 0.00 0.01 0.01 44 1015.6
20230130015056 20 176 2.0 10.0 0.00 0.01 0.01 44 1015.7
20230130014556 20 161 2.0 10.0 0.00 0.01 0.01 44 1015.5
20230130014053 20 180 4.0 7.0 0.00 0.01 0.01 44 1015.4
20230130013553 20 175 3.0 9.0 0.00 0.01 0.01 44 1015.3
20230130013050 20 185 2.0 9.0 0.00 0.01 0.01 44 1015.2
20230130012549 21 165 3.0 11.0 0.00 0.01 0.01 44 1015.2
20230130012047 21 178 4.0 11.0 0.00 0.01 0.01 45 1015.2
20230130011546 21 157 3.0 9.0 0.00 0.01 0.01 45 1015.2
20230130011044 21 195 3.0 9.0 0.00 0.01 0.01 45 1015.2
20230130010546 21 198 4.0 9.0 0.00 0.01 0.01 45 1015.2
20230130010041 21 176 4.0 9.0 0.00 0.01 0.01 45 1015.2
20230130005543 21 182 3.0 9.0 0.00 0.01 0.01 46 1015.0
20230130005043 21 184 4.0 12.0 0.00 0.01 0.01 46 1015.0
20230130004540 21 159 6.0 12.0 0.00 0.01 0.01 46 1014.9
20230130004040 22 292 2.0 12.0 0.00 0.01 0.01 46 1014.8
20230130003540 22 175 5.0 15.0 0.00 0.01 0.01 46 1014.8
20230130003040 22 173 4.0 15.0 0.00 0.01 0.01 45 1014.9
20230130002539 22 138 3.0 11.0 0.00 0.01 0.01 45 1014.8
20230130002037 22 167 4.0 10.0 0.00 0.01 0.01 46 1014.6
20230130001535 23 163 5.0 11.0 0.00 0.01 0.01 46 1014.7
20230130001033 23 293 4.0 9.0 0.00 0.01 0.01 46 1014.7
20230130000533 23 197 4.0 12.0 0.00 0.01 0.01 46 1014.7
20230130000035 23 185 4.0 12.0 0.00 0.01 0.01 45 1014.6
20230129235532 24 184 3.0 7.0 0.00 0.01 0.01 46 1014.5
20230129235029 24 175 4.0 12.0 0.00 0.01 0.01 45 1014.4
20230129234530 24 167 6.0 13.0 0.00 0.01 0.01 45 1014.4
20230129234027 24 196 4.0 13.0 0.00 0.01 0.01 45 1014.3
20230129233525 24 190 4.0 14.0 0.00 0.01 0.01 45 1014.3
20230129233024 24 167 6.0 14.0 0.00 0.01 0.01 44 1014.2
20230129232523 24 183 3.0 15.0 0.00 0.01 0.01 44 1014.2
20230129232021 25 314 6.0 11.0 0.00 0.01 0.01 44 1014.2
20230129231524 25 181 4.0 11.0 0.00 0.01 0.01 43 1014.1
20230129231019 26 179 3.0 12.0 0.00 0.01 0.01 42 1014.1
20230129230519 26 178 2.0 11.0 0.00 0.01 0.01 43 1014.1
20230129230020 26 292 3.0 12.0 0.00 0.01 0.01 42 1014.2
20230129225523 26 294 4.0 10.0 0.00 0.01 0.01 42 1014.2
20230129225020 26 221 2.0 10.0 0.00 0.01 0.01 43 1014.2
20230129224519 26 276 4.0 14.0 0.00 0.01 0.01 42 1014.2
20230129224021 26 244 4.0 14.0 0.00 0.01 0.01 42 1014.3
20230129223521 26 296 3.0 11.0 0.00 0.01 0.01 42 1014.2
20230129223019 26 180 4.0 11.0 0.00 0.01 0.01 42 1014.2
20230129222520 26 181 2.0 15.0 0.00 0.01 0.01 41 1014.1
20230129222020 26 258 5.0 15.0 0.00 0.01 0.01 41 1014.1
20230129221518 27 296 3.0 13.0 0.00 0.01 0.01 41 1014.1
20230129221017 27 169 4.0 11.0 0.00 0.01 0.01 41 1014.1
20230129220517 27 257 4.0 11.0 0.00 0.01 0.01 40 1014.2
20230129220017 27 270 3.0 10.0 0.00 0.01 0.01 39 1014.0
20230129215516 27 272 2.0 14.0 0.00 0.01 0.01 40 1014.1
20230129215017 27 151 6.0 18.0 0.00 0.01 0.01 40 1014.2
20230129214522 27 185 6.0 24.0 0.00 0.01 0.01 39 1014.0
20230129214018 27 285 6.0 18.0 0.00 0.01 0.01 39 1013.9
20230129213516 27 158 4.0 18.0 0.00 0.01 0.01 39 1014.1
20230129213015 27 336 7.0 18.0 0.00 0.01 0.01 38 1013.9
20230129212514 28 184 5.0 16.0 0.00 0.01 0.01 39 1013.8
20230129212013 28 244 3.0 11.0 0.00 0.01 0.01 40 1013.9
20230129211513 28 202 6.0 18.0 0.00 0.01 0.01 40 1013.8
20230129211009 28 177 6.0 15.0 0.00 0.01 0.01 39 1013.7
20230129210508 28 296 6.0 15.0 0.00 0.01 0.01 40 1013.7
20230129210005 28 180 5.0 18.0 0.00 0.01 0.01 38 1013.7
20230129205505 29 163 7.0 18.0 0.00 0.01 0.01 38 1013.9
20230129205003 29 300 5.0 16.0 0.00 0.01 0.01 38 1013.8
20230129204503 29 221 1.0 12.0 0.00 0.01 0.01 40 1013.9
20230129204100 29 268 4.0 13.0 0.00 0.01 0.01 40 1013.8
20230129203559 29 184 4.0 15.0 0.00 0.01 0.01 39 1014.0
20230129203058 29 163 6.0 15.0 0.00 0.01 0.01 39 1014.0
20230129202556 28 291 5.0 20.0 0.00 0.01 0.01 40 1014.1
20230129202054 29 246 5.0 21.0 0.00 0.01 0.01 39 1014.2
20230129201553 29 263 5.0 12.0 0.00 0.01 0.01 40 1014.3
20230129201053 29 169 4.0 12.0 0.00 0.01 0.01 40 1014.5
20230129200549 29 186 4.0 20.0 0.00 0.01 0.01 41 1014.6
20230129200048 28 209 5.0 20.0 0.00 0.01 0.01 42 1014.7
20230129195546 28 151 3.0 15.0 0.00 0.01 0.01 49 1014.9
20230129195045 27 163 5.0 15.0 0.00 0.01 0.01 49 1015.0
20230129194544 27 146 6.0 21.0 0.00 0.01 0.01 46 1015.1
20230129194046 27 244 7.0 21.0 0.00 0.01 0.01 41 1015.0
20230129193543 27 175 4.0 17.0 0.01 0.01 0.01 43 1015.0
20230129193045 27 264 4.0 17.0 0.01 0.01 0.01 44 1015.1
20230129192537 27 155 5.0 15.0 0.01 0.01 0.01 49 1015.1
20230129192037 27 161 5.0 15.0 0.01 0.01 0.01 45 1015.2
20230129191537 26 164 4.0 14.0 0.01 0.01 0.01 46 1015.2
20230129191032 26 196 4.0 14.0 0.01 0.01 0.01 48 1015.4
20230129190532 26 159 6.0 14.0 0.01 0.01 0.01 52 1015.4
20230129190029 25 175 3.0 9.0 0.01 0.01 0.01 54 1015.6
20230129185528 24 163 3.0 13.0 0.01 0.01 0.01 49 1015.5
20230129185027 25 261 4.0 13.0 0.01 0.01 0.01 50 1015.7
20230129184526 25 280 4.0 11.0 0.01 0.01 0.01 53 1015.7
20230129184024 25 284 6.0 11.0 0.01 0.01 0.01 53 1015.8
20230129183522 24 174 4.0 10.0 0.00 0.00 0.00 53 1016.1
20230129183025 24 169 6.0 14.0 0.00 0.00 0.00 53 1016.3
20230129182519 24 209 2.0 14.0 0.00 0.00 0.00 54 1016.5
20230129182018 23 116 2.0 18.0 0.00 0.00 0.00 55 1016.4
20230129181520 23 167 6.0 18.0 0.00 0.00 0.00 55 1016.6
20230129181016 22 277 5.0 14.0 0.00 0.00 0.00 56 1016.6
20230129180516 22 146 5.0 14.0 0.00 0.00 0.00 56 1016.9
20230129180012 22 263 3.0 11.0 0.00 0.00 0.00 56 1017.1
20230129175511 22 163 3.0 11.0 0.00 0.00 0.00 57 1017.1
20230129175009 21 134 3.0 11.0 0.00 0.00 0.00 57 1017.2
20230129174507 21 135 5.0 12.0 0.00 0.00 0.00 57 1017.1
20230129174005 21 246 5.0 16.0 0.00 0.00 0.00 58 1017.1
20230129173504 20 188 6.0 16.0 0.00 0.00 0.00 58 1017.2
20230129173003 20 163 4.0 15.0 0.00 0.00 0.00 58 1017.2
20230129172502 20 181 3.0 15.0 0.00 0.00 0.00 58 1017.3
20230129172100 20 129 4.0 12.0 0.00 0.00 0.00 58 1017.4
20230129171559 20 154 5.0 12.0 0.00 0.00 0.00 58 1017.4
20230129171056 20 175 3.0 13.0 0.00 0.00 0.00 59 1017.5
20230129170555 19 138 5.0 11.0 0.00 0.00 0.00 59 1017.4
20230129170054 19 119 3.0 10.0 0.00 0.00 0.00 61 1017.5
20230129165552 19 171 2.0 12.0 0.00 0.00 0.00 61 1017.6
20230129165050 18 213 2.0 10.0 0.00 0.00 0.00 62 1017.5
20230129164549 18 157 3.0 10.0 0.00 0.00 0.00 63 1017.5
20230129164047 17 165 4.0 10.0 0.00 0.00 0.00 64 1017.5
20230129163548 16 284 3.0 8.0 0.00 0.00 0.00 66 1017.5
20230129163045 16 208 3.0 9.0 0.00 0.00 0.00 67 1017.6
20230129162543 16 176 2.0 9.0 0.00 0.00 0.00 67 1017.6
20230129162042 16 144 3.0 9.0 0.00 0.00 0.00 68 1017.5
20230129161544 15 262 3.0 8.0 0.00 0.00 0.00 70 1017.5
20230129161038 14 112 2.0 5.0 0.00 0.00 0.00 73 1017.6
20230129160540 13 141 1.0 5.0 0.00 0.00 0.00 74 1017.6
20230129160037 13 280 1.0 5.0 0.00 0.00 0.00 76 1017.5
20230129155535 12 180 1.0 7.0 0.00 0.00 0.00 77 1017.6
20230129155032 11 278 1.0 7.0 0.00 0.00 0.00 79 1017.6
20230129154541 10 190 0.0 6.0 0.00 0.00 0.00 82 1017.6
20230129154031 8 190 1.0 6.0 0.00 0.00 0.00 82 1017.7
20230129153528 8 257 1.0 3.0 0.00 0.00 0.00 83 1017.8
20230129153026 7 263 0.0 3.0 0.00 0.00 0.00 83 1017.7
20230129152525 6 263 1.0 3.0 0.00 0.00 0.00 82 1017.6
20230129152025 6 197 1.0 3.0 0.00 0.00 0.00 82 1017.6
20230129151523 5 195 2.0 3.0 0.00 0.00 0.00 82 1017.5
20230129151020 5 193 1.0 2.0 0.00 0.00 0.00 83 1017.5
20230129150519 5 192 0.0 0.0 0.00 0.00 0.00 83 1017.5
20230129150017 5 192 0.0 3.0 0.00 0.00 0.00 83 1017.4
20230129145516 5 192 0.0 3.0 0.00 0.00 0.00 83 1017.4
20230129145015 5 192 0.0 3.0 0.00 0.00 0.00 83 1017.4
20230129144515 6 189 1.0 3.0 0.00 0.00 0.00 84 1017.4
20230129144012 5 182 0.0 3.0 0.00 0.00 0.00 85 1017.3
20230129143512 5 181 0.0 5.0 0.00 0.00 0.00 88 1017.2
20230129143009 4 159 0.0 5.0 0.00 0.00 0.00 88 1017.1
20230129142508 3 201 0.0 1.0 0.00 0.00 0.00 86 1017.1
20230129142005 2 198 0.0 1.0 0.00 0.00 0.00 84 1017.0
20230129141504 3 197 0.0 1.0 0.00 0.00 0.00 84 1016.9
20230129141002 2 194 0.0 1.0 0.00 0.00 0.00 86 1016.9
20230129140503 2 192 0.0 1.0 0.00 0.00 0.00 86 1016.8
20230129140100 2 190 0.0 1.0 0.00 0.00 0.00 87 1016.8
20230129135558 1 188 0.0 1.0 0.00 0.00 0.00 84 1016.7
20230129135057 1 188 0.0 1.0 0.00 0.00 0.00 84 1016.7
20230129134601 1 188 0.0 1.0 0.00 0.00 0.00 84 1016.7
20230129134054 1 188 0.0 1.0 0.00 0.00 0.00 84 1016.7
20230129133553 1 188 0.0 0.0 0.00 0.00 0.00 85 1016.5
20230129133101 2 188 0.0 0.0 0.00 0.00 0.00 85 1016.5
20230129132551 2 188 0.0 0.0 0.00 0.00 0.00 85 1016.4
20230129132048 1 188 0.0 1.0 0.00 0.00 0.00 85 1016.4
20230129131547 1 188 0.0 1.0 0.00 0.00 0.00 85 1016.2
20230129131045 1 187 0.0 0.0 0.00 0.00 0.00 85 1016.1
20230129130544 1 187 0.0 0.0 0.00 0.00 0.00 85 1015.9
20230129130043 1 187 0.0 0.0 0.00 0.00 0.00 84 1015.9
20230129125541 1 187 0.0 0.0 0.00 0.00 0.00 84 1015.9
20230129125039 1 187 0.0 0.0 0.00 0.00 0.00 84 1015.9
20230129124538 1 187 0.0 0.0 0.00 0.00 0.00 84 1016.0
20230129124036 1 187 0.0 0.0 0.00 0.00 0.00 84 1016.0
20230129123534 1 187 0.0 0.0 0.00 0.00 0.00 84 1015.9
20230129123040 1 187 0.0 0.0 0.00 0.00 0.00 82 1015.7
20230129122532 2 187 0.0 0.0 0.00 0.00 0.00 81 1015.8
20230129122030 2 187 0.0 1.0 0.00 0.00 0.00 80 1015.8
20230129121530 2 188 0.0 1.0 0.00 0.00 0.00 80 1015.8
20230129121028 3 188 0.0 1.0 0.00 0.00 0.00 80 1015.8
20230129120526 4 188 0.0 1.0 0.00 0.00 0.00 81 1015.9
20230129120026 4 188 0.0 1.0 0.00 0.00 0.00 83 1015.9
20230129115522 5 175 0.0 1.0 0.00 0.00 0.00 84 1015.8
20230129115021 5 175 0.0 2.0 0.00 0.00 0.00 83 1015.8
20230129114520 5 174 0.0 2.0 0.00 0.00 0.00 84 1015.9
20230129114019 5 174 0.0 2.0 0.00 0.00 0.00 85 1015.8
20230129113517 5 174 0.0 4.0 0.00 0.00 0.00 85 1015.8
20230129113020 4 175 1.0 5.0 0.00 0.00 0.00 86 1015.7
20230129112513 3 165 0.0 0.0 0.00 0.00 0.00 85 1015.7
20230129112013 3 165 0.0 0.0 0.00 0.00 0.00 86 1015.8
20230129111511 3 165 0.0 0.0 0.00 0.00 0.00 85 1015.8
20230129111009 2 165 0.0 0.0 0.00 0.00 0.00 85 1015.8
20230129110509 2 165 0.0 0.0 0.00 0.00 0.00 85 1015.7
20230129110007 2 165 0.0 0.0 0.00 0.00 0.00 85 1015.7
20230129105505 2 165 0.0 0.0 0.00 0.00 0.00 85 1015.5
20230129105004 2 165 0.0 0.0 0.00 0.00 0.00 84 1015.6
20230129104509 2 165 0.0 0.0 0.00 0.00 0.00 84 1015.6
20230129104002 2 165 0.0 0.0 0.00 0.00 0.00 84 1015.6
20230129103600 2 165 0.0 0.0 0.00 0.00 0.00 84 1015.6
20230129103104 2 165 0.0 0.0 0.00 0.00 0.00 84 1015.6
20230129102557 2 165 0.0 0.0 0.00 0.00 0.00 84 1015.6
20230129102056 2 165 0.0 0.0 0.00 0.00 0.00 85 1015.8
20230129101622 2 165 0.0 0.0 0.00 0.00 0.00 85 1015.6
20230129101053 2 165 0.0 0.0 0.00 0.00 0.00 85 1015.6
20230129100552 2 165 0.0 0.0 0.00 0.00 0.00 86 1015.5
20230129100059 1 165 0.0 0.0 0.00 0.00 0.00 85 1015.5
20230129095549 1 165 0.0 0.0 0.00 0.00 0.00 84 1015.4
20230129095047 1 165 0.0 0.0 0.00 0.00 0.00 84 1015.4
20230129094546 1 165 0.0 0.0 0.00 0.00 0.00 83 1015.4
20230129094045 1 165 0.0 0.0 0.00 0.00 0.00 83 1015.4
20230129093543 2 165 0.0 0.0 0.00 0.00 0.00 82 1015.4
20230129093042 2 165 0.0 1.0 0.00 0.00 0.00 81 1015.4
20230129092540 2 165 0.0 1.0 0.00 0.00 0.00 79 1015.4
20230129092039 3 165 0.0 1.0 0.00 0.00 0.00 79 1015.5
20230129091538 4 165 0.0 2.0 0.00 0.00 0.00 80 1015.6
20230129091036 4 165 0.0 3.0 0.00 0.00 0.00 80 1015.6
20230129090534 4 165 0.0 3.0 0.00 0.00 0.00 80 1015.5
20230129090034 5 165 0.0 3.0 0.00 0.00 0.00 80 1015.5
20230129085534 5 165 1.0 2.0 0.00 0.00 0.00 79 1015.5
20230129085033 5 165 0.0 0.0 0.00 0.00 0.00 78 1015.4
20230129084533 5 165 0.0 1.0 0.00 0.00 0.00 78 1015.3
20230129084030 6 165 0.0 2.0 0.00 0.00 0.00 78 1015.3